Regional Weather Roundup
Issued by NWS New Orleans/Baton Rouge, LA

Home | Current Version | Previous Version | Text Only | Print | Product List | Glossary Off
Versions: 1 2 3 4 5 6 7 8 9 10 11 12 13 14 15 16 17 18 19 20 21 22 23 24 25 26 27 28 29 30 31 32 33 34 35 36 37 38 39 40 41 42 43 44 45 46 47 48 49 50

125
ASUS44 KLIX 201008
RWRLIX
NEW ORLEANS REGIONAL WEATHER ROUNDUP
NATIONAL WEATHER SERVICE NEW ORLEANS LA
500 AM CDT MON APR 20 2015

NOTE: "FAIR" INDICATES FEW OR NO CLOUDS BELOW 12,000 FEET WITH NO
      SIGNIFICANT WEATHER AND/OR OBSTRUCTIONS TO VISIBILITY.
      SKY/WX - SKY CONDITION AND SIGNIFICANT WEATHER.
      TMP - AIR TEMPERATURE.     DP    - DEWPOINT TEMPERATURE.
      RH  - RELATIVE HUMIDITY.   PRES  - PRESSURE.
      HI  - HEAT INDEX.          WCI   - WIND CHILL INDEX.

*  THESE STATIONS ARE NOT NWS OR FAA STATIONS AND ARE NOT UNDER
   NWS QUALITY CONTROL.

LAZ038-040-048-061>063-065>067-069-201100-
SOUTHEAST LOUISIANA

CITY           SKY/WX    TMP DP  RH WIND       PRES   REMARKS
N.O. AUDUBON     N/A     70  70 100 MISG        N/A
N.O. INTL ARPT MOCLDY    71  66  84 SW7       29.76F
N.O. LAKEFRONT MOCLDY    74  67  78 SW9       29.76F
SLIDELL        NOT AVBL
BATON ROUGE    PTCLDY    65  63  93 W5        29.78R
BOOTHVILLE     CLOUDY    72  69  90 W5        29.77F
BELLE CHASSE   MOCLDY    70  66  87 CALM      29.74F
BOGALUSA*        N/A     68  64  85 CALM      29.77F
GALLIANO*      CLOUDY    75  64  67 W5        29.76F
NEW ROADS*       N/A     66  63  90 CALM      29.78R
GONZALES*        N/A     67  67 100 CALM      29.78R
HAMMOND*       PTCLDY    66  64  94 CALM      29.79R
HOUMA*         MOCLDY    71  63  76 W6        29.75F
PORT FOURCHON* SUNNY     77  63  61 W7        29.81R

$$

MSZ070-080>082-201100-
SOUTHERN MISSISSIPPI

CITY           SKY/WX    TMP DP  RH WIND       PRES   REMARKS
MCCOMB         CLOUDY    65  63  93 W5        29.77F
GULFPORT       CLOUDY    68  66  93 CALM      29.75S
BILOXI         CLOUDY    71  70  98 SW7       29.75F
PASCAGOULA     MOCLDY    69  67  93 S3        29.77F

$$

COASTAL OBSERVATIONS
LAKE AND NEARSHORE STATIONS

STATION/POSITION TIME  TEMP    WIND        PRES    WAVE
                       AIR SEA DIR/SP/G            HT/PER
                 (UTC) (F)     (DEG/KT/KT) (MB)    (FT/S)
PASCAGOULA       0900   73     250/  7/  9 1008.0
WAVELAND YACHT   0900   70 74  280/  2/  2 1007.8
GRAND ISLE       0900   76 76  290/ 11/ 13 1008.4
SOUTHWEST PASS   0900   69 63  130/  8/ 11 1009.4
NEW CANAL        0900   73     220/  7/ 11 1008.2
SHELL BEACH      0900   73 76  260/ 12/ 15 1007.7

OFFSHORE STATIONS

STATION/POSITION TIME  TEMP    WIND        PRES    WAVE
                       AIR SEA DIR/SP/G            HT/PER
                 (UTC) (F)     (DEG/KT/KT) (MB)    (FT/S)
64 S DAUPHIN ISL 0950   71 74  290/  8/ 12 1010.0    4/ 7

$$




USA.gov is the U.S. government's official web portal to all federal, state and local government web resources and services.